Regional Weather Roundup
Issued by NWS

Home | Current Version | Previous Version | Graphics & Text | Print | Product List | Glossary On
Versions: 1 2 3 4 5 6 7 8 9 10 11 12 13 14 15 16 17 18 19 20 21 22 23 24 25 26 27 28 29 30 31 32 33 34 35 36 37 38 39 40 41 42 43 44 45 46 47 48 49 50
000
ASUS43 KIND 210509
RWRIN

WEATHER ROUNDUP FOR INDIANA
NATIONAL WEATHER SERVICE INDIANAPOLIS IN
100 AM EDT THU SEP 21 2017

NOTE: "FAIR" INDICATES FEW OR NO CLOUDS BELOW 12,000 FEET WITH NO
SIGNIFICANT WEATHER AND/OR OBSTRUCTIONS TO VISIBILITY.

* - STATION DOES NOT REPORT WEATHER SUCH AS PRECIPITATION OR FOG.

+ - STATION NOT QUALITY CONTROLLED BY THE NATIONAL WEATHER SERVICE.
    USE DATA WITH CAUTION...ESPECIALLY DEWPOINT AND RELATIVE
    HUMIDITY OBSERVATIONS.

INZ001>003-010>013-019-020-210600-
NORTHWEST INDIANA

CITY           SKY/WX    TMP DP  RH WIND       PRES   REMARKS
GARY /AIRPORT/ CLOUDY    78  68  69 S3        29.96S
KNOX *+        CLEAR     70  66  88 S5        29.97S
LA PORTE +     CLEAR     68  66  92 CALM      29.99R
MICHIGAN CITY+ CLOUDY    73  66  78 S3        29.98R
MONTICELLO +   CLEAR     74  70  87 S3        29.99R
RENSSELAER +   CLEAR     72  63  73 S5        29.97R
VALPARAISO     CLEAR     75  68  78 CALM      29.98R

$$

LMZ046-743>745-210600-
SOUTHERN LAKE MICHIGAN

STATION/POSITION TIME  TEMP    WIND        PRES    WAVE
                       AIR SEA DIR/SP/G            HT
                 (UTC) (F)     (DEG/KT/KT) (MB)    (FT)
BURNS HARBOR     0440   77     190/  7/ 10 1014.6R
MICHIGAN CITY    0440   79     170/ 13/ 17   N/A
5NW MICH CITY    0500   73 70  190/  4/  6   N/A     1

$$

INZ004-005-014>016-021>024-210600-
NORTH CENTRAL INDIANA

CITY           SKY/WX    TMP DP  RH WIND       PRES   REMARKS
GOSHEN         CLEAR     73  66  78 S6        30.00R
LOGANSPORT +   CLEAR     70  64  83 S3        30.01R
PERU/GRISSOM   CLEAR     71  71  98 S7        30.00R
ROCHESTER +    CLEAR     75  72  88 CALM      30.01R
SOUTH BEND     CLEAR     75  69  81 CALM      30.00R
WARSAW +       CLEAR     73  68  83 CALM      30.01R

$$

INZ006>009-017-018-025>027-210600-
NORTHEAST INDIANA

CITY           SKY/WX    TMP DP  RH WIND       PRES   REMARKS
AUBURN +       CLEAR     68  64  88 CALM      30.03R
FORT WAYNE     CLEAR     70  67  90 S5        30.02R
HUNTINGTON +   CLEAR     71  70  95 CALM      30.01S
KENDALLVILLE + CLEAR     71  68  90 CALM      30.03R

$$

INZ028-029-035-036-043>045-051>053-210600-
WEST CENTRAL INDIANA

CITY           SKY/WX    TMP DP  RH WIND       PRES   REMARKS
CRAWFORDSVL +  CLEAR     72  70  94 S3        30.00R
GREENCASTLE +  CLEAR     70  68  94 S3        30.01S
LAFAYETTE      CLEAR     74  69  85 S3        29.99R
TERRE HAUTE    CLEAR     73  68  84 S6        29.98S

$$

INZ030>032-037>040-046>048-054>057-064-065-210600-
CENTRAL INDIANA

CITY           SKY/WX    TMP DP  RH WIND       PRES   REMARKS
CP ATTERBURY + CLEAR     70  68  94 CALM      30.02S FOG
FISHERS *+     CLEAR     72  72 100 SE7       30.02R
FRANKFORT +    CLOUDY    74  70  87 CALM      30.03R
GREENWOOD *+   CLEAR     77  73  88 S3        30.03R
INDIANAPOLIS   NOT AVBL
-EAGLE CREEK   CLEAR     75  69  81 SE3       30.00S
KOKOMO +       CLEAR     70  69  97 SE3       30.02R
MT COMFORT *+    N/A    N/A N/A N/A MISG        N/A
SHELBYVILLE    CLEAR     73  68  84 S3        30.02R
ZIONSVILLE +     N/A     73  70  91 S5        30.03R

$$

INZ033-034-041-042-049-050-058-059-210600-
EAST CENTRAL INDIANA

CITY           SKY/WX    TMP DP  RH WIND       PRES   REMARKS
MUNCIE         CLEAR     75  69  81 S7        30.03R
RICHMOND +     CLEAR     64  64 100 CALM      30.06R FOG

$$

INZ060-061-067>069-081>083-085>088-210600-
SOUTHWEST INDIANA

CITY           SKY/WX    TMP DP  RH WIND       PRES   REMARKS
EVANSVILLE     CLEAR     74  70  87 CALM      30.00R
HUNTINGBURG +    N/A    N/A N/A N/A MISG        N/A
WASHINGTON +   CLEAR     74  69  85 S5        30.00R

$$

INZ062-063-066-070>080-084-089>092-210600-
SOUTH CENTRAL AND SOUTHEAST INDIANA

CITY           SKY/WX    TMP DP  RH WIND       PRES   REMARKS
BEDFORD +      CLEAR     73  68  83 CALM      30.01R
BLOOMINGTON    CLEAR     76  68  76 S6        30.02R
MADISON *+     CLEAR     68  66  94 CALM      30.05R
NORTH VERNON + CLEAR     66  66 100 CALM      30.04R
SEYMOUR +      CLEAR     72  68  88 CALM      30.02R

$$




USA.gov is the U.S. government's official web portal to all federal, state and local government web resources and services.